Hourly Data Report for October 23, 2013

All times are specified in Local Standard Time (LST). Add 1 hour to adjust for Daylight Saving Time where and when it is observed.

PENTICTON A
BRITISH COLUMBIA

49°27'45.000" N
119°36'08.000" W
344.40 m
1126146
71889
YYF

Download Data

Hourly Data (October 2013)
Hourly Data Report for October 23, 2013
Temp Definition
°C
Dew Point Temp Definition
°C
Rel Hum Definition
%
Wind Dir Definition
10's deg

Wind Spd Definition
km/h
Visibility Definition
km
Stn Press Definition
kPa
Hmdx Definition


Wind Chill Definition


Weather Definition


TIME
00:00 Legend Double Dagger 6.9 5.5 91 LegendMM LegendMM 12.9 98.13     LegendNANA
01:00 Legend Double Dagger 6.8 5.3 90 2 7 12.9 98.15     Cloudy
02:00 Legend Double Dagger 7.0 5.3 89 34 11 12.9 98.17     LegendNANA
03:00 Legend Double Dagger 6.7 4.7 87 34 8 12.9 98.16     LegendNANA
04:00 Legend Double Dagger 6.8 4.8 87 34 12 12.9 98.18     Cloudy
05:00 Legend Double Dagger 6.4 4.4 87 34 9 16.1 98.16     LegendNANA
06:00 Legend Double Dagger 6.8 5.0 88 35 8 12.9 98.21     LegendNANA
07:00 Legend Double Dagger 7.1 4.9 86 33 11 16.1 98.27     Cloudy
08:00 Legend Double Dagger 7.6 5.6 87 33 10 12.9 98.30     LegendNANA
09:00 Legend Double Dagger 8.0 5.3 83 5 3 24.1 98.29     LegendNANA
10:00 Legend Double Dagger 8.5 5.6 82 17 1 24.1 98.25     Cloudy
11:00 Legend Double Dagger 9.0 5.8 80 33 5 24.1 98.25     LegendNANA
12:00 Legend Double Dagger 9.4 6.2 80 2 9 24.1 98.23     LegendNANA
13:00 Legend Double Dagger 9.7 6.4 80 36 15 24.1 98.16     Cloudy
14:00 Legend Double Dagger 9.6 6.3 80 36 16 24.1 98.10     LegendNANA
15:00 Legend Double Dagger 9.6 6.9 83 36 15 24.1 98.07     LegendNANA
16:00 Legend Double Dagger 9.1 6.7 85 2 12 19.3 98.05     Mostly Cloudy
17:00 Legend Double Dagger 8.7 6.7 87 1 8 19.3 98.04     LegendNANA
18:00 Legend Double Dagger 8.6 6.7 88 33 11 19.3 98.07     LegendNANA
19:00 Legend Double Dagger 8.5 6.6 88 34 9 19.3 98.08     Cloudy
20:00 Legend Double Dagger 8.3 6.6 89 33 9 19.3 98.07     LegendNANA
21:00 Legend Double Dagger 8.1 6.4 89 33 9 19.3 98.09     LegendNANA
22:00 Legend Double Dagger 7.9 6.2 89 34 7 19.3 98.10     Cloudy
23:00 Legend Double Dagger 7.5 6.0 90 34 9 16.1 98.10     LegendNANA

Notes on Data Quality.

Legend

  • E = Estimated
  • M = Missing
  • NA = Not Available
  • ‡ = Partner data that is not subject to review by the National Climate Archives
Date modified: